#timestamp,LO_Frequency,Hit,StdDev 
1599206415.1,286046996.8,N
1599206416.0,286046996.8,N
1599206435.8,286046998.7,N
1599206455.7,286046999.5,N
1599206475.5,286046999.2,N
1599206495.3,286046996.8,N
1599206515.2,286046996.5,N
1599206535.0,286046996.5,N
1599206535.9,286046996.5,N
1599206555.8,286046996.5,N
1599206575.6,286046997.7,N
1599206595.4,286046995.3,N
1599206615.3,286046996.9,N
1599206635.1,286046997.3,N
1599206655.9,286046997.1,N
1599206675.7,286046996.8,N
1599206695.5,286046997.8,N
1599206715.4,286046996.7,N
1599206735.2,286046997.2,N
1599206755.0,286046997.1,N
1599206755.9,286046997.1,N
1599206775.8,286046996.8,N
1599206795.6,286046997.7,N
1599206815.5,286046997.4,N
1599206835.3,286046999.1,N
1599206855.1,286046997.1,N
1599206875.9,286046997.1,Y
1599206895.7,286046998.2,P
1599206915.6,286047000.5,N
1599206935.4,286047000.1,N
1599206955.2,286047000.1,N
1599206975.1,286047000.3,N
1599206976.0,286047000.3,N
1599206995.8,286047000.3,N
1599207015.6,286047000.9,N
1599207035.5,286046998.2,N
1599207055.3,286047001.1,N
1599207075.2,286047000.5,N
1599207095.9,286047000.7,N
1599207115.7,286047000.4,N
1599207135.6,286047002.3,N
1599207155.4,286047002.3,N
1599207175.3,286047002.5,N
1599207195.1,286046999.7,N
1599207196.0,286046999.7,N
1599207215.8,286047002.5,N
1599207235.7,286047002.0,N
1599207255.5,286047001.8,N
1599207275.4,286047004.3,Y
1599207295.2,286047002.6,P
1599207315.0,286047000.4,N
1599207315.9,286047000.4,N
1599207335.8,286047002.6,N
1599207355.6,286047000.2,N
1599207375.4,286047000.2,N
1599207425.3,286047000.1,E
1599207435.2,286046999.7,N
1599207455.3,286047000.6,P
1599207475.1,286047002.8,P
1599207495.9,286047000.4,N
1599207515.7,286046998.8,N
1599207535.5,286046998.6,N
1599207555.4,286046999.6,N
1599207575.2,286046998.5,N
1599207595.0,286046998.1,N
1599207595.9,286046998.1,N
1599207615.8,286046998.5,N
1599207635.6,286046999.3,N
1599207655.5,286046998.9,N
1599207675.3,286046998.5,N
1599207695.1,286046998.3,N
1599207715.9,286046998.8,N
1599207735.7,286046998.7,N
1599207755.6,286046998.2,N
1599207775.4,286047001.2,N
1599207795.2,286047001.1,N
1599207815.1,286046998.5,N
1599207816.0,286046998.5,N
1599207835.8,286046998.2,N
1599207855.7,286047001.2,N
1599207875.5,286047001.1,N
1599207895.3,286046998.1,N
1599207915.2,286046998.2,N
1599207935.0,286047001.2,N
1599207935.9,286047001.2,N
1599207955.8,286047001.1,N
1599207975.6,286046999.4,N
1599207995.4,286046999.0,N
1599208015.3,286046999.1,N
1599208035.1,286046999.1,N
1599208055.8,286046999.6,N
1599208075.7,286046998.3,N
1599208095.5,286046999.5,N
1599208115.4,286046999.6,N
1599208135.2,286046996.6,Y
1599208155.0,286047001.0,P
1599208155.9,286047001.0,N
1599208175.8,286047001.1,N
1599208195.6,286046998.1,N
1599208215.5,286046998.2,N
1599208235.3,286046998.2,N
1599208255.1,286046998.5,N
1599208275.9,286046998.8,N
1599208295.7,286046999.1,N
1599208315.5,286046999.5,N
1599208335.4,286046999.5,N
1599208355.2,286046999.4,N
1599208375.0,286046998.3,N
1599208376.0,286046998.3,N
1599208395.8,286046999.0,N
1599208415.6,286046999.3,N
1599208435.5,286046999.6,N
1599208455.3,286046998.5,N
1599208475.2,286047001.2,N
1599208495.9,286046999.2,N
1599208515.7,286046998.6,N
1599208535.6,286046998.4,N
1599208555.4,286046999.0,N
1599208575.2,286046996.6,Y
1599208595.1,286046999.2,P
1599208596.0,286046999.2,P
1599208615.8,286046998.9,P
1599208635.7,286046999.6,Y
1599208655.5,286046998.2,P
1599208675.3,286046998.3,P
1599208695.2,286047000.7,N
1599208715.0,286046998.3,N
1599208715.9,286046998.3,N
1599208735.8,286046998.2,N
1599208755.6,286047000.4,N
1599208775.4,286047000.3,N
1599208795.3,286047000.5,N
1599208815.1,286047002.3,N
1599208835.8,286047000.2,N
1599208855.7,286047001.9,N
1599208875.5,286047002.2,N
1599208895.4,286047001.9,N
1599208915.2,286047000.2,N
1599208935.0,286047000.1,N
1599208935.9,286047000.1,N
1599208955.8,286047000.6,N
1599208975.6,286047000.4,N
1599208995.4,286046999.8,N
1599209015.3,286046999.7,N
1599209035.1,286047000.1,N
1599209055.9,286047002.6,N
1599209075.7,286047002.8,N
1599209095.5,286047002.1,N
1599209115.4,286047002.6,N
1599209135.2,286047001.9,N
1599209155.0,286047002.1,N
1599209155.9,286047002.1,N
1599209175.8,286047001.9,N
1599209195.6,286047002.5,N
1599209215.5,286047002.1,N
1599209235.3,286047001.9,N
1599209255.1,286047001.9,N
1599209275.9,286047002.5,N
1599209295.7,286047002.5,N
1599209315.5,286047004.3,Y
1599209335.4,286047002.8,P
1599209355.2,286047000.4,N
1599209375.1,286047001.2,N
1599209376.0,286047001.2,N
1599209395.8,286047001.0,N
1599209415.6,286047000.6,N
1599209435.5,286046998.1,N
1599209455.3,286047000.8,N
1599209475.1,286046998.1,N
1599209495.9,286047000.6,N
1599209515.7,286047000.0,N
1599209535.6,286047000.3,N
1599209555.4,286047001.1,N
1599209575.2,286046998.1,N
1599209595.1,286047000.2,N
1599209596.0,286047000.2,N
1599209615.8,286047000.4,N
1599209635.6,286046999.9,N
1599209655.5,286047000.5,N
1599209675.3,286047000.2,N
1599209695.2,286046999.9,N
1599209715.9,286046999.9,N
1599209735.7,286047000.2,N
1599209755.6,286047000.4,N
1599209775.4,286047002.5,N
1599209795.2,286047002.0,N
1599209815.1,286046999.9,N
1599209816.0,286046999.9,N
1599209835.8,286047000.3,N
1599209855.7,286047000.6,N
1599209875.5,286047001.5,N
1599209895.3,286047002.1,N
1599209915.2,286047000.4,N
1599209935.0,286047000.3,N
1599209935.9,286047000.3,N
1599209955.7,286047000.5,N
1599209975.6,286047000.8,N
1599209995.4,286046998.5,N
